Overview Statistics Trail Chart Weather Telemetry Raw packets
 

This is the latest recevied weather packets stored in our database for station/object WASF. If no packets are shown the sender has not sent any weather packets the latest 10 day(s).

<< 2 3 4 5 6 7 8 >>
Time Temp. Humidity Pressure Rain* Wind** Luminosity Snow
1788027676 25° C 74% 1016 hPa 0 mm - - -
1788025729 25° C 74% 1016 hPa 0 mm - - -
1788023463 25° C 74% 1016 hPa 0 mm - - -
1788021426 25° C 78% 1016 hPa 0 mm - - -
1788019429 25° C 89% 1016 hPa 0 mm - - -
1788017281 23.89° C 94% 1016 hPa 0 mm - - -
1788013061 25° C 94% 1017 hPa 0 mm - - -
1787999677 25° C 89% 1015 hPa 0 mm - - -
1787997441 25° C 89% 1014 hPa 0 mm - - -
1787995050 25° C 89% 1014 hPa 0 mm - - -
1787992938 25° C 89% 1014 hPa 0 mm - - -
1787988538 26.11° C 84% 1014 hPa 0 mm - - -
1787982293 26.11° C 84% 1015 hPa 0 mm - - -
1787977578 27.22° C 79% 1016 hPa 0 mm - - -
1787972900 27.78° C 74% 1017 hPa 0 mm - - -
1787968512 25° C 89% 1017 hPa 0 mm - - -
1787964153 25° C 89% 1017 hPa 0 mm - - -
1787943072 22.78° C 99% 1016 hPa 0 mm - - -
1787941138 22.78° C 99% 1016 hPa 0 mm - - -
1787939186 23.89° C 94% 1016 hPa 0 mm - - -
1787937238 23.89° C 94% 1016 hPa 0 mm - - -
1787935151 23.89° C 94% 1016 hPa 0 mm - - -
1787933218 23.89° C 94% 1016 hPa 0 mm - - -
1787931269 23.89° C 94% 1016 hPa 0 mm - - -
1787929331 23.89° C 94% 1017 hPa 0 mm - - -

* Rain latest hour (hover to see other rain measurements)
** Current wind speed in m/s (hover to see current wind gust speed)